STARLINK-1094, 44941

Orbit data source: Space-Track

STARLINK-1094, 44941 is a payload satellite owned by SpaceX/Seattle (US) in LEO that was launched on Tue, 07 Jan 2020 UTC via an FALCON 9 launch vehicle from the Air Force Eastern Test Range (AFETR). Payload-class satellites include a variety of spacecraft equipped with specific instruments for various scientific and technological missions. These include communications satellites like Starlink; space stations such as the ISS; scientific satellites like the Hubble; Earth observation satellites from companies like Planet Labs, Umbra, and HawkEye 360; GPS; miniature CubeSats for education and research; and military/defense satellites.

Loading next visibility...
Identifier
44941, 2020-001AD
Orbit
LEO
Last TLE update
15 hours ago
Origin
Manufacturer
SpaceX/Seattle
Mission
Operational Commercial Communications
Bus & Motor
STARLINK, Unknown motor
Mass
260 kg wet, ~248 kg dry
Launch date (UTC)
2020-01-07 (5 years ago)
Launch vehicle
FALCON 9
Launch site
Air Force Eastern Test Range (AFETR)
Object type
Payload
Rocket body
Debris
Shape & HBR
Box + 1 Pan, 8.86 m
Radar Cross Section
13.562 m², Large (>1 m²)

Expand to show TLE details & history

TLE from 15 hours ago
0 STARLINK-1094
1 44941U 20001AD  25128.67320584 -.00000013  00000-0  18032-4 0  9991
2 44941  53.0540 255.8863 0001118  87.5599 272.5518 15.06394916294157
Epoch: 2025-05-08T16:09Z
Definitive object data (Epoch: 2025-05-08T16:09:24.984Z)
Latitude
-0.00002°
Longitude
146.79186°
Altitude
548.072 km
Speed
7.589 km/s
True Right ascension
17h 03m 32s
True Declination
0° 00' 00"
Sunlit
Object was in full shadow at TLE epoch
Visualization TLE readout
Latitude
33.73926°
Longitude
174.04557°
Altitude
549.017 km
Speed
7.592 km/s
Apparent Right ascension
22h 19m 32s
Apparent Declination
-2° 33' 45"
Sunlit
Object is in daylight
Visualization observer readout
Local Sidereal Time
14:49:45
Azimuth
77.162° E
Elevation
-18.736°
Doppler factor
1
Orbital elements
Apogee altitude
548.272 km
Perigee altitude
546.724 km
Semi-major axis
6,925.635 km
Eccentricity
0.0001118
Inclination
53.054°
RAAN
255.8863°
Arg. of periapsis
87.5599°
True anomaly
272.539°
Mean anomaly
272.5518°
Eccentric anomaly
272.5454°
Mean motion
3.76577 °/min
BSTAR
0.000018032
Orbital period
95.6 mins
Loading maneuver chart data...
Loading SW <> Apogee altitude chart data...

STARLINK-1094 Visibility forecast

Observer location: undefined°, undefined°

Span
Click to sort rows by Start time (UTC) header in descending order
Start Az.
Max El. time (UTC)
Max El. Az.
Max El.
End time (UTC)
End Az.
4 mins2025-05-09 09:49:53.223Z154.259° SSE2025-05-09 09:51:53.223Z120.22° SE15.676°2025-05-09 09:53:53.223Z89.759° E
6 mins2025-05-09 11:27:53.223Z242.121° WSW2025-05-09 11:30:53.223Z348.308° N42.33°2025-05-09 11:33:53.223Z44.142° NE
4 mins2025-05-09 16:30:53.223Z352.742° N2025-05-09 16:31:53.223Z13.555° NNE22.002°2025-05-09 16:34:53.223Z72.123° E
6 mins2025-05-09 18:09:53.223Z300.472° NW2025-05-09 18:11:53.223Z253.718° W42.262°2025-05-09 18:15:53.223Z140.637° SSE
|